Simultaneous Nadir Overpasses (SNOs) Predictions

Prediction of SNOs between GOES-17 and TERRA Satellite Orbit:

Table of predicted SNOs for the next 14.0 days since TLE Epoch: 1/8/2022
Index Date Time (GOES-17) GOES-17 Lat,Lon TERRA Lat,Lon Distance(km) Time Diff (sec)
1 01/09/2022 19:18:22 0.01,-137.21 -0.66,-134.10 353.67 80
2 01/10/2022 07:42:25 -0.01,-137.21 -0.46,-139.29 237.28 80
3 01/12/2022 07:27:30 0.00,-137.19 0.17,-136.33 97.52 80
4 01/12/2022 19:48:45 -0.00,-137.19 0.90,-141.49 489.15 80
5 01/14/2022 07:15:15 0.02,-137.17 0.80,-133.37 431.43 80
6 01/14/2022 19:36:30 -0.02,-137.17 0.26,-138.54 155.36 80
7 01/16/2022 19:26:54 -0.01,-137.14 -0.32,-135.56 178.28 80
8 01/17/2022 07:48:18 0.01,-137.13 -0.74,-140.77 413.17 80
9 01/19/2022 07:36:02 0.01,-137.09 -0.16,-137.80 80.35 80
10 01/21/2022 07:23:47 0.00,-137.05 0.49,-134.84 252.06 80
11 01/21/2022 19:42:20 -0.00,-137.04 0.64,-139.99 335.42 80
